This is the latest recevied weather packets stored in our database for station/object KQ4WWD. If no packets are shown the sender has not sent any weather packets the latest 10 day(s).
| Time | Temp. | Humidity | Pressure | Rain* | Wind** | Luminosity | Snow |
|---|---|---|---|---|---|---|---|
| 1777214240 | 26.67° C | 77% | 1011.3 hPa | 0 mm | - | 794 W/m² | - |
| 1777213938 | 26.67° C | 76% | 1011.5 hPa | 0 mm | - | 701 W/m² | - |
| 1777213633 | 26.11° C | 79% | 1011.5 hPa | 0 mm | - | 700 W/m² | - |
| 1777213329 | 25.56° C | 81% | 1011.5 hPa | 0 mm | - | 680 W/m² | - |
| 1777213026 | 25.56° C | 81% | 1011.8 hPa | 0 mm | - | 240 W/m² | - |
| 1777212724 | 25.56° C | 82% | 1011.6 hPa | 0 mm | - | 275 W/m² | - |
| 1777212424 | 25° C | 82% | 1011.6 hPa | 0 mm | - | 310 W/m² | - |
| 1777212119 | 25.56° C | 82% | 1011.5 hPa | 0 mm | - | 150 W/m² | - |
| 1777211815 | 25° C | 85% | 1011.8 hPa | 0 mm | - | 656 W/m² | - |
| 1777211513 | 25° C | 85% | 1011.8 hPa | 0 mm | - | 590 W/m² | - |
| 1777211209 | 24.44° C | 86% | 1011.6 hPa | 0 mm | - | 570 W/m² | - |
| 1777210906 | 24.44° C | 86% | 1011.7 hPa | 0 mm | - | 90 W/m² | - |
| 1777210604 | 24.44° C | 86% | 1011.7 hPa | 0 mm | - | 137 W/m² | - |
| 1777210302 | 24.44° C | 86% | 1011.7 hPa | 0 mm | - | 176 W/m² | - |
| 1777209998 | 25° C | 85% | 1011.8 hPa | 0 mm | - | 212 W/m² | - |
| 1777209698 | 24.44° C | 85% | 1011.6 hPa | 0 mm | - | 383 W/m² | - |
| 1777209395 | 23.89° C | 85% | 1011.7 hPa | 0 mm | - | 311 W/m² | - |
| 1777209091 | 23.89° C | 87% | 1011.8 hPa | 0 mm | - | 247 W/m² | - |
| 1777208787 | 23.89° C | 87% | 1011.7 hPa | 0 mm | - | 87 W/m² | - |
| 1777208484 | 23.89° C | 86% | 1011.9 hPa | 0 mm | - | 87 W/m² | - |
| 1777208181 | 23.89° C | 86% | 1011.6 hPa | 0 mm | - | 323 W/m² | - |
| 1777207876 | 23.89° C | 86% | 1011.7 hPa | 0 mm | - | 131 W/m² | - |
| 1777207571 | 23.33° C | 87% | 1011.7 hPa | 0 mm | - | 248 W/m² | - |
| 1777207267 | 23.33° C | 87% | 1011.7 hPa | 0 mm | - | 120 W/m² | - |
| 1777206967 | 23.33° C | 87% | 1011.6 hPa | 0 mm | - | 150 W/m² | - |
* Rain latest hour (hover to see other rain measurements)
** Current wind speed in m/s (hover to see current wind gust speed)